Location: Unspecified
(50.7693°N, 0.0000°E)
Time: 00:35:27
(UTC+00:00)

Transit 2A Rocket - Pass Details

Date: 01 November 2019
Orbit: 594 x 909 km, 66.7° (Epoch: 21 November)

Event Time Altitude Azimuth Distance (km) Brightness Sun altitude
Exits shadow 05:19:15 12° 324° (NW) 1,872 6.6 -14.9°
Maximum altitude 05:20:28 13° 341° (NNW) 1,792 6.7 -14.7°
Drops below altitude 10° 05:22:35 10° 10° (N) 1,973 7.2 -14.4°
Sets 05:25:59 0° 39° (NE) 2,854 8.5 -13.8°
